Torna al catalogo

BREEZE-M DEB

AttivoHEO
NORAD 32026·DEBRIS·🇷🇺 Russia

Lanciato Feb 28, 2006 da Baikonur Cosmodrome

Loading…

Prossimi Passaggi (prossime 24 ore)

TLE

AggiornatoSource: Space-Track

Epoca: Sep 14, 2026, 05:07 UTC

1 32026U 06006D   26257.21352309  .00002399  00000-0  10497-1 0  9997
2 32026  51.3057 346.8582 3824737 344.1822  13.8377  7.04685086448021

Traccia BREEZE-M DEB in tempo reale con AllMySat

Download on the App Store